Location: Newark
(35.5300°N, 14.3000°E)
Time: 07:25:13
(UTC+00:00)

Explorer 11/Cluster Stage 4 - Pass Details

Date: 16 November 2019
Orbit: 467 x 1259 km, 28.8° (Epoch: 15 December)

Event Time Altitude Azimuth Distance (km) Brightness Sun altitude
Rises 18:36:03 0° 217° (SW) 3,267 10.2 -32.6°
Reaches altitude 10° 18:38:52 10° 203° (SSW) 2,479 9.3 -33.1°
Enters shadow 18:40:17 16° 191° (S) 2,178 8.9 -33.4°
